• în România
  • Lista ţărilor
  • Pe 7 zile
  • Temperatura apei
  • Hartă satelitară
  • Meteo pe hartă
  • Widget-uri
  • user-avatar
    Intrare

    Meteo pe oră la Shkoder

    Astăzi, 24 Iulie, Luni

    Timp Temperatura Precipitaţii Vânt Presiune Umiditate
    00:00 +24°C° 0 mm 1 m/s 739 mmHg 65%
    01:00 +24°C° 0 mm 1 m/s 738 mmHg 72%
    02:00 +24°C° 0 mm 1 m/s 738 mmHg 72%
    03:00 +24°C° 0 mm 1 m/s 737 mmHg 72%
    04:00 +23°C° 0 mm 1 m/s 737 mmHg 72%
    05:00 +25°C° 0 mm 1 m/s 737 mmHg 66%
    06:00 +27°C° 0 mm 1 m/s 737 mmHg 60%
    07:00 +27°C° 0 mm 0 m/s 737 mmHg 54%
    08:00 +31°C° 0 mm 1 m/s 737 mmHg 48%
    09:00 +33°C° 0 mm 1 m/s 736 mmHg 43%
    10:00 +35°C° 0 mm 2 m/s 736 mmHg 38%
    11:00 +36°C° 0 mm 2 m/s 736 mmHg 35%
    12:00 +37°C° 0 mm 3 m/s 735 mmHg 32%
    13:00 +37°C° 0 mm 3 m/s 735 mmHg 29%
    14:00 +37°C° 0 mm 3 m/s 734 mmHg 30%
    15:00 +36°C° 0 mm 3 m/s 734 mmHg 31%
    16:00 +36°C° 0 mm 3 m/s 733 mmHg 32%
    17:00 +33°C° 0 mm 3 m/s 733 mmHg 39%
    18:00 +30°C° 0 mm 2 m/s 733 mmHg 45%
    19:00 +27°C° 0 mm 2 m/s 732 mmHg 51%
    20:00 +26°C° 0 mm 2 m/s 732 mmHg 52%
    21:00 +26°C° 0 mm 2 m/s 732 mmHg 52%
    22:00 +25°C° 0 mm 3 m/s 732 mmHg 53%
    23:00 +24°C° 0 mm 3 m/s 732 mmHg 55%

    Mâine, 25 Iulie, Marţi

    Timp Temperatura Precipitaţii Vânt Presiune Umiditate
    00:00 +24°C° 0 mm 3 m/s 732 mmHg 56%
    01:00 +22°C° 0 mm 3 m/s 732 mmHg 58%
    02:00 +22°C° 0,1 mm 3 m/s 732 mmHg 64%
    03:00 +22°C° 0,1 mm 3 m/s 732 mmHg 70%
    04:00 +22°C° 0,1 mm 3 m/s 731 mmHg 76%
    05:00 +24°C° 0,6 mm 3 m/s 731 mmHg 76%
    06:00 +24°C° 0,6 mm 3 m/s 731 mmHg 76%
    07:00 +25°C° 0,6 mm 4 m/s 731 mmHg 76%
    08:00 +26°C° 1,4 mm 4 m/s 731 mmHg 74%
    09:00 +26°C° 1,4 mm 4 m/s 732 mmHg 73%
    10:00 +26°C° 1,4 mm 3 m/s 732 mmHg 71%
    11:00 +27°C° 0,8 mm 4 m/s 732 mmHg 67%
    12:00 +28°C° 0,8 mm 4 m/s 731 mmHg 63%
    13:00 +29°C° 0,8 mm 4 m/s 731 mmHg 59%
    14:00 +28°C° 0,6 mm 4 m/s 731 mmHg 59%
    15:00 +28°C° 0,6 mm 4 m/s 731 mmHg 59%
    16:00 +28°C° 0,6 mm 3 m/s 731 mmHg 59%
    17:00 +26°C° 0,2 mm 3 m/s 732 mmHg 64%
    18:00 +25°C° 0,2 mm 2 m/s 732 mmHg 69%
    19:00 +23°C° 0,2 mm 1 m/s 732 mmHg 75%
    20:00 +22°C° 0,1 mm 1 m/s 732 mmHg 78%
    21:00 +21°C° 0,1 mm 1 m/s 732 mmHg 82%
    22:00 +19°C° 0,1 mm 2 m/s 733 mmHg 85%
    23:00 +19°C° 0 mm 2 m/s 733 mmHg 85%

    Poimâine, 26 Iulie, Miercuri

    Timp Temperatura Precipitaţii Vânt Presiune Umiditate
    00:00 +19°C° 0 mm 2 m/s 733 mmHg 84%
    01:00 +19°C° 0 mm 2 m/s 733 mmHg 84%
    02:00 +19°C° 0,1 mm 2 m/s 733 mmHg 84%
    03:00 +18°C° 0,1 mm 2 m/s 733 mmHg 85%
    04:00 +18°C° 0,1 mm 2 m/s 732 mmHg 85%
    05:00 +20°C° 0,1 mm 2 m/s 732 mmHg 80%
    06:00 +21°C° 0,1 mm 2 m/s 732 mmHg 76%
    07:00 +24°C° 0,1 mm 2 m/s 732 mmHg 71%
    08:00 +25°C° 0,4 mm 2 m/s 732 mmHg 67%
    09:00 +26°C° 0,4 mm 2 m/s 732 mmHg 62%
    10:00 +28°C° 0,4 mm 2 m/s 732 mmHg 58%
    11:00 +28°C° 1,2 mm 2 m/s 732 mmHg 59%
    12:00 +27°C° 1,2 mm 2 m/s 732 mmHg 61%
    13:00 +27°C° 1,2 mm 3 m/s 732 mmHg 62%
    14:00 +27°C° 1,5 mm 2 m/s 732 mmHg 63%
    15:00 +27°C° 1,5 mm 2 m/s 732 mmHg 64%
    16:00 +27°C° 1,5 mm 2 m/s 732 mmHg 64%
    17:00 +25°C° 1 mm 2 m/s 732 mmHg 69%
    18:00 +24°C° 1 mm 1 m/s 732 mmHg 74%
    19:00 +22°C° 1 mm 1 m/s 732 mmHg 78%
    20:00 +21°C° 0,5 mm 1 m/s 732 mmHg 81%
    21:00 +21°C° 0,5 mm 1 m/s 733 mmHg 84%
    22:00 +20°C° 0,5 mm 1 m/s 733 mmHg 86%
    23:00 +20°C° 0,5 mm 1 m/s 733 mmHg 86%

    27 Iulie, Joi

    Timp Temperatura Precipitaţii Vânt Presiune Umiditate
    00:00 +20°C° 0,5 mm 1 m/s 733 mmHg 86%
    01:00 +20°C° 0,5 mm 1 m/s 733 mmHg 86%
    02:00 +19°C° 0,5 mm 1 m/s 733 mmHg 87%
    03:00 +19°C° 0,5 mm 1 m/s 733 mmHg 88%
    04:00 +18°C° 0,5 mm 2 m/s 733 mmHg 88%
    05:00 +19°C° 0,2 mm 2 m/s 733 mmHg 84%
    06:00 +20°C° 0,2 mm 2 m/s 733 mmHg 80%
    07:00 +21°C° 0,2 mm 2 m/s 734 mmHg 76%
    08:00 +24°C° 0,3 mm 2 m/s 734 mmHg 69%
    09:00 +25°C° 0,3 mm 2 m/s 734 mmHg 63%
    10:00 +26°C° 0,3 mm 2 m/s 734 mmHg 56%
    11:00 +27°C° 0,4 mm 2 m/s 734 mmHg 55%
    12:00 +27°C° 0,4 mm 2 m/s 734 mmHg 53%
    13:00 +28°C° 0,4 mm 3 m/s 734 mmHg 51%
    14:00 +28°C° 0,3 mm 3 m/s 734 mmHg 52%
    15:00 +28°C° 0,3 mm 3 m/s 734 mmHg 52%
    16:00 +28°C° 0,3 mm 3 m/s 734 mmHg 52%
    17:00 +26°C° 0,1 mm 3 m/s 735 mmHg 58%
    18:00 +24°C° 0,1 mm 2 m/s 735 mmHg 63%
    19:00 +23°C° 0,1 mm 2 m/s 735 mmHg 68%
    20:00 +21°C° 0 mm 2 m/s 736 mmHg 69%
    21:00 +20°C° 0 mm 2 m/s 736 mmHg 71%
    22:00 +19°C° 0 mm 2 m/s 737 mmHg 72%
    23:00 +19°C° 0 mm 2 m/s 737 mmHg 72%

    28 Iulie, Vineri

    Timp Temperatura Precipitaţii Vânt Presiune Umiditate
    00:00 +18°C° 0 mm 2 m/s 737 mmHg 73%
    01:00 +18°C° 0 mm 2 m/s 737 mmHg 73%
    02:00 +18°C° 0 mm 2 m/s 737 mmHg 74%
    03:00 +17°C° 0 mm 2 m/s 737 mmHg 74%
    04:00 +17°C° 0 mm 2 m/s 738 mmHg 74%
    05:00 +19°C° 0 mm 2 m/s 738 mmHg 69%
    06:00 +21°C° 0 mm 2 m/s 738 mmHg 64%
    07:00 +24°C° 0 mm 2 m/s 738 mmHg 59%
    08:00 +26°C° 0 mm 2 m/s 739 mmHg 52%
    09:00 +28°C° 0 mm 1 m/s 739 mmHg 45%
    10:00 +29°C° 0 mm 1 m/s 739 mmHg 39%
    11:00 +30°C° 0 mm 2 m/s 739 mmHg 37%
    12:00 +31°C° 0 mm 2 m/s 739 mmHg 36%
    13:00 +31°C° 0 mm 3 m/s 738 mmHg 35%
    14:00 +31°C° 0 mm 3 m/s 738 mmHg 37%
    15:00 +31°C° 0 mm 3 m/s 738 mmHg 39%
    16:00 +31°C° 0 mm 3 m/s 738 mmHg 40%
    17:00 +28°C° 0 mm 2 m/s 739 mmHg 48%
    18:00 +26°C° 0 mm 2 m/s 739 mmHg 56%
    19:00 +24°C° 0 mm 1 m/s 739 mmHg 64%
    20:00 +23°C° 0 mm 1 m/s 739 mmHg 64%
    21:00 +23°C° 0 mm 1 m/s 740 mmHg 64%
    22:00 +22°C° 0 mm 1 m/s 740 mmHg 65%
    23:00 +21°C° 0 mm 2 m/s 740 mmHg 64%

    29 Iulie, Sâmbătă

    Timp Temperatura Precipitaţii Vânt Presiune Umiditate
    00:00 +21°C° 0 mm 2 m/s 740 mmHg 62%
    01:00 +20°C° 0 mm 2 m/s 740 mmHg 61%
    02:00 +20°C° 0 mm 2 m/s 740 mmHg 61%
    03:00 +20°C° 0 mm 2 m/s 741 mmHg 60%
    04:00 +20°C° 0 mm 2 m/s 741 mmHg 59%
    05:00 +23°C° 0 mm 2 m/s 741 mmHg 55%
    06:00 +25°C° 0 mm 1 m/s 741 mmHg 52%
    07:00 +27°C° 0 mm 1 m/s 741 mmHg 48%
    08:00 +29°C° 0 mm 1 m/s 741 mmHg 43%
    09:00 +30°C° 0 mm 1 m/s 742 mmHg 39%
    10:00 +32°C° 0 mm 1 m/s 742 mmHg 34%
    11:00 +34°C° 0 mm 2 m/s 742 mmHg 34%
    12:00 +35°C° 0 mm 2 m/s 741 mmHg 33%
    13:00 +35°C° 0 mm 3 m/s 741 mmHg 32%
    14:00 +35°C° 0 mm 3 m/s 741 mmHg 34%
    15:00 +35°C° 0 mm 3 m/s 741 mmHg 36%
    16:00 +34°C° 0 mm 3 m/s 741 mmHg 37%
    17:00 +31°C° 0 mm 2 m/s 741 mmHg 44%
    18:00 +28°C° 0 mm 1 m/s 741 mmHg 51%
    19:00 +26°C° 0 mm 1 m/s 741 mmHg 58%
    20:00 +25°C° 0 mm 1 m/s 741 mmHg 59%
    21:00 +25°C° 0 mm 1 m/s 742 mmHg 61%
    22:00 +24°C° 0 mm 1 m/s 742 mmHg 62%
    23:00 +24°C° 0 mm 1 m/s 742 mmHg 63%
    Arată mai mult